FW0304 Weather Reports


Display with metric or nautical units.
time (UTC)temp
F
wind
direction
speed
MPH
gust
MPH
rain 1hr
in
rain 24hr
in
rain mn
in
humidity
%
barometer
mb
20260906100020 74 55 0.0 0.0 0.00 0.00 0.00 92 1012.6
20260906094502 74 55 0.0 0.0 0.00 0.00 0.00 92 1012.3
20260906093013 74 55 0.0 0.0 0.00 0.00 0.00 92 1012.0
20260906091513 74 55 0.0 0.0 0.00 0.00 0.00 92 1012.1
20260906090036 74 55 0.0 0.0 0.00 0.00 0.00 92 1012.3
20260906084527 75 55 0.0 0.0 0.00 0.00 0.00 91 1012.4
20260906083007 75 55 0.0 0.0 0.00 0.00 0.00 91 1012.3
20260906081513 75 55 0.0 0.0 0.00 0.00 0.00 91 1012.3
20260906080015 75 55 0.0 0.0 0.00 0.00 0.00 91 1012.4
20260906074527 75 55 0.0 0.0 0.00 0.00 0.00 91 1012.3
20260906073026 75 55 0.0 0.0 0.00 0.00 0.00 90 1012.3
20260906071508 75 55 0.0 0.0 0.00 0.00 0.00 90 1012.5
20260906070014 76 55 0.0 0.0 0.00 0.00 0.00 89 1012.5
20260906064521 76 55 0.0 0.0 0.00 0.00 0.00 89 1012.5
20260906063041 76 55 0.0 0.0 0.00 0.00 0.00 88 1012.4
20260906061509 76 55 0.0 0.0 0.00 0.00 0.00 88 1012.7
20260906060014 76 55 0.0 0.0 0.00 0.00 0.00 88 1012.6
20260906054518 77 55 0.0 0.0 0.00 0.00 0.00 87 1012.7
20260906053027 77 55 0.0 0.0 0.00 0.00 0.00 87 1012.8
20260906051549 77 55 0.0 0.0 0.00 0.00 0.00 86 1012.7
20260906050013 77 55 0.0 0.0 0.00 0.00 0.00 86 1012.7
20260906044516 78 55 0.0 2.0 0.00 0.00 0.00 85 1012.9
20260906043026 78 55 0.0 0.0 0.00 0.00 0.00 84 1013.0
20260906041532 79 55 0.0 0.0 0.00 0.00 0.00 83 1012.8
20260906040037 79 55 0.0 0.0 0.00 0.00 0.00 82 1012.8
20260906034515 79 55 0.0 0.0 0.00 0.00 0.00 81 1012.8
20260906033023 80 55 0.0 0.0 0.00 0.00 0.00 80 1012.9
20260906031537 80 55 0.0 0.0 0.00 0.00 0.00 79 1012.9
20260906030006 81 55 0.0 0.0 0.00 0.00 0.00 78 1012.9
20260906024511 81 55 0.0 0.0 0.00 0.00 0.00 77 1012.7
20260906023017 82 55 0.0 0.0 0.00 0.00 0.00 75 1012.8
20260906021527 83 55 0.0 0.0 0.00 0.00 0.00 74 1012.5
20260906020009 83 55 0.0 0.0 0.00 0.00 0.00 72 1012.2
20260906014520 84 55 0.0 2.0 0.00 0.00 0.00 70 1011.9
20260906013015 84 117 0.0 0.0 0.00 0.00 0.00 68 1011.8
20260906011525 85 117 0.0 0.0 0.00 0.00 0.00 66 1011.8
20260906010031 85 113 0.0 0.0 0.00 0.00 0.00 64 1011.7
20260906004511 86 115 0.0 0.0 0.00 0.00 0.00 62 1011.4
20260906003013 87 150 0.0 2.0 0.00 0.00 0.00 60 1011.3
20260906001522 88 68 0.0 3.0 0.00 0.00 0.00 59 1011.3
20260906000026 89 124 0.0 3.0 0.00 0.00 0.00 60 1011.3
20260905234528 90 182 0.0 2.0 0.00 0.00 0.00 60 1011.4
20260905233011 91 167 0.0 3.0 0.00 0.00 0.00 59 1011.1
20260905231523 91 195 0.0 4.0 0.00 0.00 0.00 59 1011.0
20260905230030 92 133 0.0 3.0 0.00 0.00 0.00 59 1010.9
20260905224528 92 133 1.0 3.0 0.00 0.00 0.00 58 1011.0
20260905223012 93 180 0.0 4.0 0.00 0.00 0.00 58 1010.9
20260905221516 93 165 0.0 3.0 0.00 0.00 0.00 57 1010.8
20260905220026 95 209 0.0 6.0 0.00 0.00 0.00 55 1010.9
20260905214532 96 184 1.0 7.0 0.00 0.00 0.00 52 1010.8
20260905213030 95 140 0.0 0.0 0.00 0.00 0.00 53 1011.0
20260905211518 94 140 0.0 2.0 0.00 0.00 0.00 55 1011.1
20260905210034 96 140 0.0 2.0 0.00 0.00 0.00 50 1011.2
20260905204534 97 167 0.0 2.0 0.00 0.00 0.00 48 1011.3
20260905203032 97 349 0.0 2.0 0.00 0.00 0.00 49 1011.4
20260905201532 96 307 0.0 2.0 0.00 0.00 0.00 48 1011.7
20260905200023 96 303 0.0 2.0 0.00 0.00 0.00 50 1012.0
20260905194527 96 329 0.0 2.0 0.00 0.00 0.00 50 1012.1
20260905193034 97 248 0.0 2.0 0.00 0.00 0.00 48 1012.2
20260905191540 96 300 1.0 2.0 0.00 0.00 0.00 48 1012.4
20260905190020 95 290 0.0 2.0 0.00 0.00 0.00 52 1012.7
20260905184525 97 343 0.0 6.0 0.00 0.00 0.00 48 1012.8
20260905183006 96 100 1.0 3.0 0.00 0.00 0.00 49 1013.2
20260905181512 96 349 1.0 3.0 0.00 0.00 0.00 49 1013.4
20260905180015 96 171 1.0 3.0 0.00 0.00 0.00 50 1013.6
20260905174523 96 352 1.0 4.0 0.00 0.00 0.00 52 1013.9
20260905173003 94 280 0.0 3.0 0.00 0.00 0.00 54 1014.0
20260905171513 95 294 1.0 2.0 0.00 0.00 0.00 53 1014.1
20260905170014 94 286 0.0 2.0 0.00 0.00 0.00 54 1014.2
20260905164520 94 319 0.0 2.0 0.00 0.00 0.00 56 1014.4
20260905163032 92 298 0.0 2.0 0.00 0.00 0.00 62 1014.7
20260905161509 93 5 1.0 2.0 0.00 0.00 0.00 62 1014.9
20260905160011 91 226 1.0 2.0 0.00 0.00 0.00 65 1015.0
20260905154513 90 306 0.0 2.0 0.00 0.00 0.00 68 1015.1
20260905153024 91 306 0.0 2.0 0.00 0.00 0.00 68 1015.2
20260905151529 88 294 0.0 0.0 0.00 0.00 0.00 72 1015.3
20260905150008 88 301 0.0 2.0 0.00 0.00 0.00 73 1015.2
20260905144513 88 302 0.0 2.0 0.00 0.00 0.00 72 1015.2
20260905143019 85 79 0.0 2.0 0.00 0.00 0.00 79 1015.2
20260905141527 85 269 0.0 2.0 0.00 0.00 0.00 77 1015.2
20260905140005 84 313 0.0 2.0 0.00 0.00 0.00 80 1015.2
20260905134513 83 311 0.0 2.0 0.00 0.00 0.00 81 1015.3
20260905133018 81 322 1.0 2.0 0.00 0.00 0.00 85 1015.3
20260905131534 79 329 0.0 1.0 0.00 0.00 0.00 87 1015.4
20260905130031 77 329 0.0 2.0 0.00 0.00 0.00 89 1015.5
20260905124510 76 329 0.0 0.0 0.00 0.00 0.00 91 1015.4
20260905123017 74 329 0.0 0.0 0.00 0.00 0.00 92 1015.3
20260905121526 74 329 0.0 0.0 0.00 0.00 0.00 1015.1
20260905120034 73 329 0.0 0.0 0.00 0.00 0.00 1014.7
20260905114532 73 329 0.0 0.0 0.00 0.00 0.00 93 1014.7
20260905113010 73 329 0.0 0.0 0.00 0.00 0.00 93 1014.7
20260905111521 74 329 0.0 0.0 0.00 0.00 0.00 93 1014.5
20260905110023 74 329 0.0 0.0 0.00 0.00 0.00 93 1014.4
20260905104530 74 329 0.0 0.0 0.00 0.00 0.00 92 1014.2
20260905103013 74 329 0.0 0.0 0.00 0.00 0.00 93 1014.1
20260905101515 74 329 0.0 0.0 0.00 0.00 0.00 92 1014.3